This is the latest recevied weather packets stored in our database for station/object K7SFN. If no packets are shown the sender has not sent any weather packets the latest 10 day(s).
| Time | Temp. | Humidity | Pressure | Rain* | Wind** | Luminosity | Snow |
|---|---|---|---|---|---|---|---|
| 1777726805 | 7.22° C | 57% | 1016.2 hPa | 0 mm | - | - | - |
| 1777726505 | 6.67° C | 58% | 1016.2 hPa | 0 mm | - | - | - |
| 1777724404 | 7.22° C | 55% | 1016 hPa | 0 mm | - | - | - |
| 1777723804 | 7.22° C | 55% | 1016 hPa | 0 mm | - | - | - |
| 1777717505 | 8.33° C | 44% | 1016 hPa | 0 mm | - | - | - |
| 1777716004 | 8.33° C | 43% | 1016 hPa | 0 mm | - | - | - |
| 1777715105 | 8.33° C | 43% | 1016.1 hPa | 0 mm | - | - | - |
| 1777710005 | 10° C | 39% | 1016.7 hPa | 0 mm | - | - | - |
| 1777707305 | 10.56° C | 36% | 1017 hPa | 0 mm | - | - | - |
| 1777707005 | 10.56° C | 38% | 1017 hPa | 0 mm | - | - | - |
| 1777705504 | 11.11° C | 37% | 1017 hPa | 0 mm | - | - | - |
| 1777705204 | 11.67° C | 36% | 1017 hPa | 0 mm | - | - | - |
| 1777701904 | 12.78° C | 33% | 1016.9 hPa | 0 mm | - | - | - |
| 1777701004 | 13.33° C | 34% | 1017 hPa | 0 mm | - | - | - |
| 1777698305 | 15.56° C | 30% | 1016.9 hPa | 0 mm | - | - | - |
| 1777696204 | 16.11° C | 30% | 1016.7 hPa | 0 mm | - | - | - |
| 1777695904 | 16.11° C | 30% | 1016.6 hPa | 0 mm | - | - | - |
| 1777694705 | 16.67° C | 32% | 1016.6 hPa | 0 mm | - | - | - |
| 1777694105 | 17.22° C | 31% | 1016.4 hPa | 0 mm | - | - | - |
| 1777692904 | 18.33° C | 17% | 1016 hPa | 0 mm | - | - | - |
| 1777692604 | 18.33° C | 16% | 1015.9 hPa | 0 mm | - | - | - |
| 1777689304 | 20° C | 15% | 1015.5 hPa | 0 mm | - | - | - |
| 1777687505 | 20.56° C | 15% | 1015.4 hPa | 0 mm | - | - | - |
| 1777687204 | 20.56° C | 14% | 1015.5 hPa | 0 mm | - | - | - |
| 1777686604 | 21.11° C | 15% | 1015.5 hPa | 0 mm | - | - | - |
* Rain latest hour (hover to see other rain measurements)
** Current wind speed in m/s (hover to see current wind gust speed)